Weather History for Northeast Philadelphia, PA

Change the Weather History Date:

Wednesday, November 7, 2012

  Actual Average Record
Temperature  
Mean Temperature 36 °F -  
Max Temperature 39 °F 55 °F 73 °F (1996)
Min Temperature 33 °F 37 °F 28 °F (1998)
Degree Days  
Heating Degree Days 29    
Moisture  
Dew Point 30 °F    
Average Humidity 83    
Maximum Humidity 96    
Minimum Humidity 52    
Precipitation  
Precipitation 0.48 in - - ()
Sea Level Pressure  
Sea Level Pressure 29.89 in    
Wind  
Wind Speed 15 mph (North)    
Max Wind Speed 22 mph    
Max Gust Speed 31 mph    
Visibility 4 miles    
Events Rain , Snow    
Averages and records for this station are not official NWS values.
T = Trace of Precipitation, MM = Missing Value Source: NWS Daily Summary

Daily Weather History Graph

Daily Weather History Graph

Search for Another Location

Airport:

Trip Planner

Search our weather history database for the weather conditions in past years. The results will help you decide how hot, cold, wet, or windy it might be!

Date:

Astronomy

Nov. 07, 2012 Rise Set
Actual Time 6:36 AM EST 4:50 PM EST
Civil Twilight 6:08 AM EST 5:18 PM EST
Nautical Twilight 5:35 AM EST 5:51 PM EST
Astronomical Twilight 5:03 AM EST 6:22 PM EST
Moon No Moon Rise 12:58 PM EST (11/7)
Length of Visible Light 11h 10m
Length of Day
10h 13m
Last Quarter, 43% of the Moon is Illuminated
Nov 7
Last Quarter
Nov 13
New
Nov 20
First Quarter
Nov 28
Full
Dec 6
Last Quarter

Hourly Weather History & Observations

Time (EST) Temp. Windchill Dew Point Humidity Pressure Visibility Wind Dir Wind Speed Gust Speed Precip Events Conditions
12:54 AM 37.0 °F 27.7 °F 23.0 °F 57% 30.02 in 10.0 mi NNE 16.1 mph - N/A   Clear
1:54 AM 37.0 °F 29.3 °F 23.0 °F 57% 30.01 in 10.0 mi NNE 11.5 mph 18.4 mph N/A   Partly Cloudy
2:54 AM 36.0 °F 27.5 °F 23.0 °F 59% 29.99 in 10.0 mi NNE 12.7 mph - N/A   Clear
3:54 AM 37.0 °F 27.0 °F 24.1 °F 59% 29.95 in 10.0 mi NNE 18.4 mph - N/A   Partly Cloudy
4:54 AM 37.0 °F 27.7 °F 21.0 °F 52% 29.95 in 10.0 mi NE 16.1 mph - N/A   Mostly Cloudy
5:54 AM 37.0 °F 28.5 °F 21.0 °F 52% 29.96 in 10.0 mi NNE 13.8 mph 23.0 mph N/A   Overcast
6:54 AM 37.0 °F 29.3 °F 24.1 °F 59% 29.96 in 10.0 mi NNE 11.5 mph - N/A   Overcast
7:54 AM 37.9 °F 30.5 °F 25.0 °F 60% 29.96 in 10.0 mi NNE 11.5 mph - N/A   Overcast
8:54 AM 39.0 °F 30.6 °F 26.1 °F 60% 29.94 in 10.0 mi NNE 15.0 mph 26.5 mph N/A   Overcast
9:54 AM 39.9 °F 31.4 °F 27.0 °F 60% 29.92 in 10.0 mi NNE 16.1 mph 24.2 mph N/A   Overcast
10:54 AM 39.9 °F 30.8 °F 27.0 °F 60% 29.91 in 10.0 mi NNE 18.4 mph 24.2 mph N/A   Overcast
11:51 AM 37.4 °F 28.9 °F 30.2 °F 75% 29.89 in 9.0 mi North 13.8 mph 27.6 mph 0.00 in Snow Light Snow
11:54 AM 37.9 °F 28.9 °F 30.0 °F 73% 29.90 in 9.0 mi North 16.1 mph 21.9 mph 0.00 in Snow Light Snow
12:18 PM 37.4 °F 28.5 °F 30.2 °F 75% 29.89 in 2.0 mi North 15.0 mph 23.0 mph 0.01 in Snow Light Snow
12:50 PM 33.8 °F 25.8 °F 30.2 °F 87% 29.87 in 2.0 mi NNW 10.4 mph - 0.04 in Snow Light Snow
12:54 PM 34.0 °F 26.0 °F 32.0 °F 92% 29.88 in 3.0 mi NNW 10.4 mph - 0.05 in Rain Light Rain
1:42 PM 35.6 °F 27.1 °F 32.0 °F 87% 29.88 in 3.0 mi North 12.7 mph - 0.01 in Snow Light Snow
1:50 PM 35.6 °F 26.2 °F 32.0 °F 87% 29.88 in 2.0 mi North 15.0 mph 20.7 mph 0.01 in Snow Light Snow
1:54 PM 36.0 °F 25.3 °F 32.0 °F 86% 29.89 in 2.0 mi North 19.6 mph 25.3 mph 0.01 in Snow Light Snow
2:27 PM 33.8 °F 23.2 °F 32.0 °F 93% 29.88 in 2.0 mi North 17.3 mph - 0.04 in Snow Light Snow
2:54 PM 34.0 °F 25.0 °F 32.0 °F 92% 29.89 in 2.0 mi North 12.7 mph - 0.07 in Snow Light Snow
3:42 PM 35.6 °F 25.9 °F 33.8 °F 93% 29.87 in 2.0 mi North 16.1 mph 24.2 mph 0.03 in Snow Light Snow
3:54 PM 35.1 °F 25.2 °F 33.1 °F 92% 29.88 in 2.0 mi North 16.1 mph 23.0 mph 0.04 in Rain Light Freezing Rain
4:12 PM 35.6 °F 25.2 °F 33.8 °F 93% 29.88 in 2.0 mi North 18.4 mph 26.5 mph 0.01 in Snow Light Snow
4:46 PM 33.8 °F 23.5 °F 32.0 °F 93% 29.88 in 2.5 mi North 16.1 mph 23.0 mph 0.06 in Snow Light Snow
4:54 PM 34.0 °F 23.8 °F 32.0 °F 92% 29.88 in 2.0 mi North 16.1 mph - 0.07 in Snow Light Snow
5:01 PM 33.8 °F 23.2 °F 32.0 °F 93% 29.87 in 1.5 mi North 17.3 mph 24.2 mph 0.00 in Snow Light Snow
5:15 PM 33.8 °F 22.8 °F 32.0 °F 93% 29.87 in 1.8 mi North 18.4 mph 25.3 mph 0.02 in Snow Light Snow
5:19 PM 33.8 °F 23.2 °F 32.0 °F 93% 29.87 in 1.8 mi North 17.3 mph 27.6 mph 0.02 in Snow Light Snow
5:30 PM 33.8 °F 21.9 °F 32.0 °F 93% 29.87 in 2.5 mi NNW 21.9 mph 31.1 mph 0.03 in Snow Light Snow
5:44 PM 33.8 °F 23.9 °F 32.0 °F 93% 29.87 in 4.0 mi NNW 15.0 mph 25.3 mph 0.04 in Snow Light Snow
5:54 PM 34.0 °F 23.8 °F 32.0 °F 92% 29.88 in 4.0 mi NNW 16.1 mph 24.2 mph 0.04 in Snow Light Snow
6:21 PM 33.8 °F 24.8 °F 32.0 °F 93% 29.88 in 7.0 mi North 12.7 mph 21.9 mph 0.02 in Snow Light Snow
6:54 PM 34.0 °F 25.5 °F 33.1 °F 96% 29.89 in 5.0 mi North 11.5 mph 20.7 mph 0.03 in Snow Light Snow
7:01 PM 33.8 °F 25.3 °F 32.0 °F 93% 29.89 in 4.0 mi North 11.5 mph - 0.01 in Snow Light Snow
7:37 PM 33.8 °F 23.9 °F 32.0 °F 93% 29.88 in 5.0 mi North 15.0 mph 20.7 mph 0.03 in Snow Light Snow
7:54 PM 34.0 °F 25.5 °F 32.0 °F 92% 29.88 in 3.0 mi North 11.5 mph - 0.04 in Snow Light Snow
8:01 PM 33.8 °F 24.8 °F 32.0 °F 93% 29.88 in 2.5 mi North 12.7 mph - 0.01 in Snow Light Snow
8:35 PM 33.8 °F 23.2 °F 32.0 °F 93% 29.88 in 3.0 mi North 17.3 mph 23.0 mph 0.04 in Snow Light Snow
8:42 PM 33.8 °F 23.5 °F 32.0 °F 93% 29.87 in 4.0 mi North 16.1 mph 24.2 mph 0.04 in Snow Light Snow
8:54 PM 34.0 °F 23.4 °F 32.0 °F 92% 29.88 in 6.0 mi North 17.3 mph 25.3 mph 0.05 in Snow Light Snow
9:16 PM 33.8 °F 22.8 °F 30.2 °F 87% 29.86 in 2.5 mi North 18.4 mph - 0.01 in Snow Light Snow
9:18 PM 33.8 °F 22.5 °F 30.2 °F 87% 29.86 in 1.8 mi North 19.6 mph 26.5 mph 0.01 in Snow Light Snow
9:34 PM 33.8 °F 23.2 °F 30.2 °F 87% 29.86 in 1.2 mi North 17.3 mph - 0.01 in Snow Light Snow
9:54 PM 33.1 °F 22.6 °F 30.9 °F 92% 29.86 in 1.0 mi North 16.1 mph 24.2 mph 0.01 in Snow Light Snow
10:07 PM 33.8 °F 23.5 °F 30.2 °F 87% 29.86 in 1.2 mi North 16.1 mph 23.0 mph 0.00 in Snow Light Snow
10:20 PM 33.8 °F 23.9 °F 30.2 °F 87% 29.85 in 1.2 mi North 15.0 mph 24.2 mph 0.00 in Snow Light Snow
10:54 PM 33.1 °F 22.6 °F 30.9 °F 92% 29.84 in 1.5 mi North 16.1 mph 21.9 mph 0.01 in Snow Light Snow
11:06 PM 33.8 °F 24.3 °F 30.2 °F 87% 29.84 in 1.8 mi North 13.8 mph 21.9 mph 0.00 in Snow Light Snow
11:33 PM 33.8 °F 24.3 °F 30.2 °F 87% 29.83 in 1.5 mi NNW 13.8 mph 23.0 mph 0.06 in Snow Light Snow
11:39 PM 33.8 °F 23.9 °F 30.2 °F 87% 29.83 in 2.0 mi NNW 15.0 mph 23.0 mph 0.06 in Snow Light Snow
11:54 PM 34.0 °F 24.2 °F 30.9 °F 89% 29.83 in 2.5 mi NNW 15.0 mph 24.2 mph 0.06 in Snow Light Snow